Location: Newark
(42.8481°N, 0.4872°E)
Time: 18:00:07
(UTC+00:00)

Vanguard 3 - Pass Details

Date: 31 October 2020
Orbit: 508 x 3262 km, 33.3° (Epoch: 28 November)

Event Time Altitude Azimuth Distance (km) Brightness Sun altitude
Rises 07:35:14 0° 264° (W) 6,691 11.3 9.8°
Reaches altitude 10° 07:39:25 10° 262° (W) 5,890 11.1 10.4°
Maximum altitude 07:58:25 62° 188° (S) 3,497 10.8 13.4°
Drops below altitude 10° 08:15:28 10° 114° (ESE) 5,354 13.3 15.9°
Sets 08:19:04 0° 111° (ESE) 6,079 13.0 16.4°
